CAPE
0 0 0 0 0 0 0 0 0 1 46 68 101 152 201 313 252 150 334 571 792 811 902 871 984 1146 1269 1139 1075 1196 1098 796 769 809 793 629 538 527 483 409 447 229 103 86 55 68 103 130 189
0 0 0 0 0 0 0 0 94 101 74 36 28 24 136 189 656 483 599 975 717 945 970 990 985 1125 1283 1242 1278 1231 1057 874 854 894 773 600 521 401 300 278 325 97 46 31 21 4 1 4 8
0 0 0 0 0 0 0 4 86 66 25 13 1 0 0 271 697 461 766 916 881 866 910 1069 1138 1253 1363 1374 1332 1293 1284 1216 1129 982 709 593 463 303 138 118 43 16 9 2 0 0 0 0 0
0 0 0 0 0 0 0 3 0 16 0 12 0 29 4 99 528 632 1043 979 832 740 771 949 1201 1330 1388 1422 1458 1445 1336 1189 1119 993 671 556 375 192 59 24 0 0 0 0 0 0 0 0 0
0 0 0 0 0 0 0 0 0 5 6 2 0 27 11 813 730 969 1003 916 846 846 922 1047 1331 1399 1461 1495 1488 1391 1150 958 1026 937 721 526 363 194 42 0 0 0 0 0 0 0 0 0 0
0 0 0 0 0 0 0 15 98 73 22 16 77 46 34 875 881 1013 977 860 874 983 1227 1240 1351 1315 1297 1344 1302 1121 953 928 998 881 682 495 387 223 27 0 0 0 0 0 0 0 0 5 2
0 0 0 0 0 0 0 44 109 87 55 50 26 34 338 772 965 1174 1023 938 1017 1278 1334 1253 1299 1248 1215 1096 1002 961 932 945 925 870 726 590 449 249 60 7 37 26 5 24 41 119 96 69 92
0 0 0 0 0 0 0 0 1 37 69 14 18 384 621 565 1114 1090 768 638 640 717 866 865 1061 1270 903 836 873 802 743 759 805 805 654 434 309 259 205 202 60 215 184 156 221 203 212 198 162
0 0 0 1 0 0 0 0 0 2 33 19 1 104 373 802 780 668 722 687 667 747 774 833 803 829 679 572 660 734 761 686 673 666 548 348 50 10 53 157 310 290 294 271 313 364 321 250 144
0 0 0 0 0 0 1 1 13 58 44 8 0 128 587 809 595 516 485 533 534 680 631 553 537 502 393 591 491 349 353 335 312 364 270 129 64 49 149 129 266 451 463 576 552 517 505 338 23
0 0 0 0 0 0 0 0 0 44 59 9 121 300 360 658 615 534 504 482 584 634 527 315 243 191 249 373 202 53 96 77 89 118 74 82 130 81 71 84 19 8 111 59 10 15 13 0 0
0 0 0 0 0 0 0 0 43 0 10 34 90 309 260 411 316 323 246 223 169 260 269 183 51 40 26 0 24 2 38 35 84 148 159 121 50 10 0 0 0 0 0 0 0 0 0 0 0
0 0 0 0 0 0 0 0 0 0 3 0 7 178 173 219 118 15 3 7 0 82 50 13 0 0 0 3 1 0 40 108 118 168 172 3 0 0 0 0 0 0 0 0 0 0 0 0 0
0 0 0 0 0 0 0 0 0 0 0 0 1 69 13 117 0 0 0 0 0 20 19 5 0 0 0 0 0 0 2 65 185 133 7 0 0 0 0 0 0 0 0 0 0 0 0 0 0
0 0 0 0 0 0 0 0 0 0 0 0 0 0 0 0 0 0 0 0 0 0 0 0 0 0 0 0 0 0 0 0 2 0 0 0 0 0 0 0 0 0 0 0 0 0 0 0 0
0 0 0 0 0 0 0 0 0 0 45 1 0 0 0 0 0 0 0 0 0 0 58 26 37 23 0 0 0 0 0 0 0 0 0 0 0 0 0 0 0 0 0 0 0 0 0 0 0
0 0 0 0 0 0 0 0 0 0 4 0 0 0 0 0 0 0 0 0 0 122 56 36 9 0 0 0 0 0 0 0 0 0 0 0 0 0 0 0 0 0 0 0 0 0 0 0 0
0 0 0 0 0 0 0 0 0 0 0 0 0 0 0 0 0 0 0 0 0 0 0 0 0 0 0 0 0 0 0 0 0 0 0 0 0 0 0 0 0 0 0 0 0 0 0 0 0
0 0 0 0 0 0 0 0 0 0 0 0 0 0 0 0 0 0 0 0 0 0 0 0 0 0 0 0 0 0 0 0 0 0 0 0 0 0 0 0 0 0 0 0 0 0 0 0 0
0 0 0 0 0 0 0 0 0 0 0 0 0 0 0 0 0 0 0 0 0 0 0 0 0 0 0 0 0 0 0 0 0 0 0 0 0 0 0 0 0 0 0 0 0 0 0 0 0
0 0 0 0 0 0 0 0 0 0 0 0 0 0 0 0 0 0 0 0 0 0 0 0 0 0 0 0 0 0 0 0 0 0 0 0 0 0 0 0 0 0 0 0 0 0 0 0 0
0 0 0 0 0 0 0 0 0 0 0 0 0 0 0 0 0 0 0 0 0 0 0 0 0 0 0 0 0 0 0 0 0 0 0 0 0 0 0 0 0 0 0 0 0 0 0 0 0
0 0 0 0 0 0 0 0 0 0 0 0 0 0 0 0 0 0 0 0 0 0 0 0 0 0 0 0 0 0 0 0 0 0 0 0 0 0 0 0 0 0 0 0 0 0 0 0 0
0 0 0 0 0 0 0 0 0 0 0 0 0 0 0 0 0 0 0 0 0 0 0 0 0 0 0 0 0 0 0 0 0 0 0 0 0 0 0 0 0 0 0 0 0 0 0 0 0
0 0 0 0 0 0 0 0 0 0 0 0 0 0 0 0 0 0 0 0 0 0 0 0 0 0 0 0 0 0 0 0 0 0 0 0 0 0 0 0 0 0 0 0 0 0 0 0 0
0 0 0 0 0 0 0 0 0 0 0 0 0 0 0 0 0 0 0 0 0 0 0 0 0 0 0 0 0 0 0 0 0 0 0 0 0 0 0 0 0 0 0 0 0 0 0 0 0
0 0 0 0 0 0 0 0 0 0 0 0 0 0 0 0 0 0 0 0 0 0 0 0 0 0 0 0 0 0 0 0 0 0 0 0 0 0 0 0 0 0 0 0 0 0 0 0 0
0 0 0 0 0 0 0 0 0 0 0 0 0 0 0 0 0 0 0 0 0 0 0 0 0 0 0 0 0 0 0 0 0 0 0 0 0 0 0 0 0 0 0 0 0 0 0 0 0
0 0 0 0 0 0 0 0 0 0 0 0 0 0 0 0 0 0 0 0 0 0 0 0 0 0 0 0 0 0 0 0 0 0 0 0 0 0 0 0 0 0 0 0 0 0 0 0 0
0 0 0 0 0 0 0 0 0 0 0 0 0 0 0 0 0 0 0 0 0 0 0 0 0 0 0 0 0 0 0 0 0 0 0 0 0 0 0 0 0 0 0 0 0 0 0 0 0
CIN
0 0 0 0 0 0 0 0 0 -24 -153 -192 -151 -84 -72 -50 -66 -61 -97 -63 -21 0 0 -6 -8 -1 0 0 0 0 0 -12 -4 -5 -9 -25 -33 -34 -42 -59 -54 -95 -114 -125 -131 -121 -99 -93 -74
0 0 0 0 0 0 0 0 -63 -97 -156 -205 -253 -165 -81 -12 -34 -54 -19 -14 -29 0 0 -2 -7 -1 0 0 0 0 0 -6 -4 -5 -21 -45 -44 -70 -99 -109 -75 -125 -154 -194 -218 -138 -121 -147 -239
0 0 0 0 0 0 0 -66 -46 -106 -109 -137 -54 0 0 -35 -42 -88 -16 -15 0 0 -13 -4 -3 0 0 0 0 0 0 0 -1 -8 -28 -44 -71 -110 -176 -177 -196 -227 -250 -78 0 0 0 0 0
0 0 0 0 0 0 0 -118 -3 -55 -2 -77 0 -46 -126 -169 -98 -71 -4 0 -5 -8 -17 -12 -5 -1 0 0 0 -2 0 0 -1 -9 -40 -61 -108 -170 -221 -247 -7 0 0 0 0 0 0 0 0
0 0 0 0 0 0 0 0 0 -61 -77 -83 -9 -147 -96 -46 -60 -11 0 -4 -8 -4 -7 -5 0 0 0 0 0 0 0 -8 -13 -15 -40 -85 -130 -172 -234 0 0 0 0 0 0 0 0 0 0
0 0 0 0 0 0 0 -191 -116 -111 -132 -177 -195 -168 -196 -31 -42 -5 0 -3 -12 -2 0 -1 -1 -2 -2 -1 -1 -1 -10 -14 -6 -17 -66 -112 -136 -182 -276 0 0 0 0 0 0 0 0 -114 -40
0 0 0 0 0 0 0 -162 -64 -60 -88 -154 -242 -258 -97 -17 -28 -6 -1 -9 -5 -2 0 0 0 -3 -3 -6 -6 -8 -8 -7 -13 -37 -58 -78 -124 -178 -229 -182 -223 -171 -177 -202 -153 -136 -135 -139 -136
0 0 0 0 0 0 0 0 -83 -133 -142 -319 -366 -152 -37 -36 -6 -8 -20 -33 -41 -37 -14 -18 -2 0 -27 -38 -38 -69 -67 -58 -51 -44 -74 -133 -156 -161 -163 -176 -215 -144 -149 -148 -109 -112 -110 -120 -130
0 0 0 -25 0 0 0 0 0 -107 -249 -316 -250 -302 -204 -84 -45 -53 -40 -34 -42 -43 -62 -64 -70 -61 -102 -132 -126 -94 -90 -119 -117 -115 -130 -168 -275 -235 -253 -213 -143 -128 -118 -118 -93 -80 -95 -110 -173
0 0 0 0 0 -2 -13 -39 -183 -163 -197 -295 0 -350 -192 -107 -140 -116 -117 -112 -122 -108 -149 -151 -144 -166 -199 -147 -193 -257 -264 -258 -251 -220 -224 -253 -281 -284 -222 -234 -164 -108 -91 -59 -62 -74 -81 -111 -250
0 0 0 0 0 0 0 0 0 -184 -123 -229 -208 -250 -221 -108 -97 -126 -137 -186 -204 -182 -174 -249 -287 -306 -298 -254 -325 -418 -384 -377 -356 -295 -324 -296 -246 -284 -271 -267 -326 -328 -220 -255 -37 -304 -261 0 0
0 0 0 0 0 0 0 0 -157 0 -119 -260 -323 -313 -332 -232 -269 -261 -300 -324 -367 -302 -288 -358 -447 -436 -411 -3 -402 -399 -404 -398 -347 -296 -274 -268 -287 -290 0 0 0 0 0 0 0 0 0 0 0
0 0 0 0 0 0 0 0 0 0 -200 0 -272 -334 -348 -314 -352 -357 -278 -249 0 -358 -401 -463 0 0 0 -285 -172 0 -363 -288 -274 -245 -242 -288 0 0 0 0 0 0 0 0 0 0 0 0 0
0 0 0 0 0 0 0 0 0 0 0 0 -25 -366 -319 -326 0 0 0 0 0 -378 -362 -259 0 0 0 0 0 0 -103 -275 -209 -241 -126 0 0 0 0 0 0 0 0 0 0 0 0 0 0
0 0 0 0 0 0 0 0 0 0 0 0 0 0 0 0 0 0 0 0 0 0 0 0 0 0 0 0 0 0 0 0 -25 0 0 0 0 0 0 0 0 0 0 0 0 0 0 0 0
0 0 0 0 0 0 0 0 0 0 -309 -58 0 0 0 0 0 0 0 0 0 0 -349 -314 -257 -269 -62 -54 0 0 0 0 0 0 0 0 0 0 0 0 0 0 0 0 0 0 0 0 0
0 0 0 0 0 0 0 0 0 0 -218 0 0 0 0 0 0 0 0 0 0 -364 -330 -270 -244 0 0 0 0 0 0 0 0 0 0 0 0 0 0 0 0 0 0 0 0 0 0 0 0
0 0 0 0 0 0 0 0 0 0 0 0 0 0 0 0 0 0 0 0 0 0 0 0 0 0 0 0 0 0 0 0 0 0 0 0 0 0 0 0 0 0 0 0 0 0 0 0 0
0 0 0 0 0 0 0 0 0 0 0 0 0 0 0 0 0 0 0 0 0 0 0 0 0 0 0 0 0 0 0 0 0 0 0 0 0 0 0 0 0 0 0 0 0 0 0 0 0
0 0 0 0 0 0 0 0 0 0 0 0 0 0 0 0 0 0 0 0 0 0 0 0 0 0 0 0 0 0 0 0 0 0 0 0 0 0 0 0 0 0 0 0 0 0 0 0 0
0 0 0 0 0 0 0 0 0 0 0 0 0 0 0 0 0 0 0 0 0 0 0 0 0 0 0 0 0 0 0 0 0 0 0 0 0 0 0 0 0 0 0 0 0 0 0 0 0
0 0 0 0 0 0 0 0 0 0 0 0 0 0 0 0 0 0 0 0 0 0 0 0 0 0 0 0 0 0 0 0 0 0 0 0 0 0 0 0 0 0 0 0 0 0 0 0 0
0 0 0 0 0 0 0 0 0 0 0 0 0 0 0 0 0 0 0 0 0 0 0 0 0 0 0 0 0 0 0 0 0 0 0 0 0 0 0 0 0 0 0 0 0 0 0 0 0
0 0 0 0 0 0 0 0 0 0 0 0 0 0 0 0 0 0 0 0 0 0 0 0 0 0 0 0 0 0 0 0 0 0 0 0 0 0 0 0 0 0 0 0 0 0 0 0 0
0 0 0 0 0 0 0 0 0 0 0 0 0 0 0 0 0 0 0 0 0 0 0 0 0 0 0 0 0 0 0 0 0 0 0 0 0 0 0 0 0 0 0 0 0 0 0 0 0
0 0 0 0 0 0 0 0 0 0 0 0 0 0 0 0 0 0 0 0 0 0 0 0 0 0 0 0 0 0 0 0 0 0 0 0 0 0 0 0 0 0 0 0 0 0 0 0 0
0 0 0 0 0 0 0 0 0 0 0 0 0 0 0 0 0 0 0 0 0 0 0 0 0 0 0 0 0 0 0 0 0 0 0 0 0 0 0 0 0 0 0 0 0 0 0 0 0
0 0 0 0 0 0 0 0 0 0 0 0 0 0 0 0 0 0 0 0 0 0 0 0 0 0 0 0 0 0 0 0 0 0 0 0 0 0 0 0 0 0 0 0 0 0 0 0 0
0 0 0 0 0 0 0 0 0 0 0 0 0 0 0 0 0 0 0 0 0 0 0 0 0 0 0 0 0 0 0 0 0 0 0 0 0 0 0 0 0 0 0 0 0 0 0 0 0
0 0 0 0 0 0 0 0 0 0 0 0 0 0 0 0 0 0 0 0 0 0 0 0 0 0 0 0 0 0 0 0 0 0 0 0 0 0 0 0 0 0 0 0 0 0 0 0 0
Wind_Speed
2 3 4 3 4 5 2 5 1 3 3 1 9 7 6 2 1 2 5 7 11 7 9 12 15 16 15 15 15 14 13 13 13 11 10 10 9 9 10 10 10 10 12 12 12 12 12 13 13
2 4 4 1 6 2 5 3 4 8 7 9 10 8 11 4 3 10 5 10 11 8 7 10 13 15 15 15 14 13 13 13 12 10 9 9 8 9 9 10 10 10 11 12 11 12 12 12 13
2 3 4 5 4 5 5 3 12 7 4 3 8 6 1 1 6 6 6 13 10 6 5 9 13 13 14 14 14 13 12 11 10 9 9 8 8 7 8 9 9 10 10 11 10 10 10 10 10
3 5 4 5 5 7 4 7 12 3 4 8 9 6 3 4 4 6 13 10 10 5 5 8 11 12 13 13 13 13 11 10 9 8 8 8 7 6 7 8 8 9 9 8 9 8 8 8 9
4 4 3 0 5 5 4 8 7 6 2 10 6 6 3 4 11 14 13 11 11 6 6 7 10 12 12 12 13 12 10 9 9 8 8 7 6 5 5 6 6 6 7 8 7 7 6 6 6
4 3 3 2 3 4 3 6 8 6 2 4 4 4 2 9 16 12 10 9 12 11 8 7 11 10 10 10 11 11 10 8 7 7 7 6 4 4 4 4 4 5 6 6 5 6 6 6 6
5 5 4 3 1 3 4 4 7 7 8 2 4 5 2 4 10 11 9 8 9 10 8 7 5 7 8 9 9 9 9 7 7 6 5 3 3 2 3 5 5 5 5 5 5 6 7 8 8
5 5 4 3 2 4 2 4 3 6 3 4 6 6 8 5 12 12 10 10 10 10 10 10 9 5 5 5 8 9 8 7 6 5 4 2 2 2 3 3 4 4 5 6 7 8 8 8 9
3 5 0 5 4 3 5 4 2 2 6 3 4 5 9 16 15 11 8 7 8 7 8 5 9 4 4 4 4 7 9 9 8 6 6 3 2 1 1 2 3 4 6 6 7 8 8 9 9
5 4 9 5 4 9 15 6 8 5 3 4 4 8 14 15 17 16 15 12 12 10 8 8 4 4 4 3 4 5 4 3 3 4 4 3 3 2 1 3 5 6 6 7 8 8 8 7 4
4 4 6 3 4 7 6 4 3 10 1 6 12 12 13 11 10 12 11 12 15 10 4 5 5 5 5 3 2 1 1 2 2 4 4 2 2 1 1 1 2 2 3 2 4 5 2 3 3
1 6 5 6 7 5 9 5 5 2 4 8 15 20 13 13 12 12 11 10 8 7 7 7 6 5 3 1 1 2 2 2 2 4 4 1 1 2 2 1 1 0 1 2 3 2 3 3 4
3 4 4 4 8 7 8 5 6 2 5 11 11 14 15 13 9 6 9 8 6 7 5 4 5 4 2 1 0 1 3 2 3 3 1 2 2 2 1 1 2 4 4 4 4 4 4 4 5
6 3 3 5 5 5 8 3 2 1 6 10 14 14 11 15 12 5 5 4 6 6 6 6 5 8 7 4 6 5 5 4 3 2 2 3 2 3 2 4 5 4 4 4 4 4 4 4 4
4 6 6 7 4 4 7 4 1 1 6 11 11 7 5 6 4 3 5 7 7 4 7 7 9 9 9 8 9 7 6 7 4 3 4 1 5 6 5 4 4 3 3 5 4 5 4 4 4
6 6 4 3 3 3 6 4 8 6 9 7 7 6 8 6 4 5 4 5 8 8 9 10 9 9 11 8 6 5 7 4 5 4 4 6 7 6 4 4 4 4 4 4 4 4 3 3 4
7 3 3 1 3 3 5 3 8 8 7 7 7 7 7 6 8 7 8 7 8 11 12 9 7 11 8 8 5 3 3 4 2 4 3 6 6 6 6 4 4 4 4 5 3 3 3 3 4
5 3 1 4 1 13 9 5 7 10 9 7 7 8 8 7 8 6 7 9 9 11 12 10 8 11 9 6 4 2 3 3 4 4 5 6 5 7 5 4 5 4 4 4 3 4 2 1 2
4 4 3 2 4 11 5 6 9 8 9 8 7 8 7 8 3 6 6 7 13 10 12 8 10 7 6 2 3 2 1 2 2 3 6 7 6 7 6 4 4 5 5 4 4 3 5 3 5
6 6 4 3 4 11 10 10 7 9 5 4 7 7 8 7 7 8 9 10 10 8 9 8 9 8 5 3 3 3 3 2 3 3 5 6 6 6 3 4 5 5 4 5 5 5 2 2 4
4 5 3 5 10 7 7 7 7 6 6 6 6 3 4 6 8 8 7 7 8 8 7 8 7 7 4 4 3 2 3 3 3 4 3 4 5 5 5 5 4 4 3 4 3 4 5 3 2
4 1 5 7 5 5 3 2 2 2 2 3 1 3 4 8 5 8 6 7 7 6 6 6 6 5 3 3 4 3 2 2 1 1 1 2 3 1 2 4 4 4 2 5 4 3 4 3 3
3 6 6 4 5 5 4 6 3 3 4 6 5 4 4 2 6 8 7 6 5 5 5 3 4 6 6 7 7 5 5 2 1 0 1 2 3 2 0 3 5 4 3 4 4 4 5 2 2
4 6 6 5 4 3 4 6 5 8 8 5 4 6 6 5 3 7 6 6 4 5 5 7 9 8 8 7 7 7 6 3 1 3 3 4 3 3 3 2 3 4 4 3 2 3 4 3 3
6 6 4 4 4 5 1 3 7 11 7 9 10 9 6 3 2 3 3 7 5 7 7 7 8 8 8 9 8 7 4 1 3 6 4 6 5 3 2 3 3 3 2 1 2 3 2 1 2
2 5 7 6 4 4 3 4 5 7 9 9 8 4 7 5 4 4 5 7 7 8 8 8 8 7 7 7 6 5 6 3 4 4 5 6 5 4 5 6 5 5 2 2 3 2 2 3 2
2 2 3 8 3 3 3 4 4 4 5 7 7 7 7 7 7 7 6 6 7 7 8 8 8 8 7 6 5 6 5 6 5 7 6 5 6 2 2 5 3 3 5 4 4 4 3 3 3
2 5 3 4 3 2 4 4 5 5 9 8 7 8 7 7 7 6 5 6 6 7 7 8 7 7 5 6 6 5 6 7 6 6 8 7 4 0 5 3 6 5 4 7 4 4 4 4 2
2 2 7 6 4 6 1 7 5 9 11 10 7 7 10 8 7 6 6 6 7 6 7 7 7 7 6 5 4 5 5 6 6 6 7 6 2 2 4 5 5 6 4 5 4 4 4 3 2
2 3 5 7 3 2 4 8 4 8 8 9 8 6 6 6 6 6 6 6 6 6 4 7 4 4 2 2 2 3 4 6 6 6 7 5 3 4 5 2 3 5 5 4 5 4 2 3 3
Wind_Direction
169 111 94 52 71 66 235 257 261 94 76 83 75 67 112 224 58 164 121 113 129 138 143 138 141 141 130 126 121 121 119 117 116 113 108 102 98 97 94 90 79 78 73 67 58 51 42 35 30
134 136 52 62 86 91 288 237 117 112 148 133 83 33 37 314 35 124 136 130 127 137 131 140 143 134 130 129 125 126 128 126 122 119 119 109 109 98 94 87 78 73 70 64 57 51 39 34 28
90 56 75 104 115 197 197 200 93 151 133 63 100 77 261 152 131 115 121 118 125 122 136 144 133 131 134 131 132 133 129 125 129 131 123 120 112 101 88 84 82 75 65 57 50 46 41 35 32
155 24 19 88 217 248 195 144 128 157 16 54 106 135 129 299 129 118 127 119 121 107 109 123 128 131 130 136 134 126 131 132 135 136 136 128 114 100 90 84 78 72 67 58 47 42 40 31 26
31 65 65 145 250 250 240 150 147 105 300 131 169 166 107 19 112 130 129 132 130 119 106 124 123 133 136 133 133 134 135 139 139 142 136 129 119 105 94 86 76 70 60 53 47 49 47 40 28
47 96 73 219 289 315 44 113 122 146 95 87 103 97 108 138 129 136 131 135 148 137 138 137 142 136 136 140 136 141 143 149 141 144 147 138 138 122 106 94 77 61 44 38 36 37 45 41 20
125 98 198 157 226 338 85 78 138 123 171 168 125 91 89 116 130 131 143 134 136 140 141 146 134 142 141 141 140 143 139 151 155 156 143 151 136 103 70 48 33 28 18 0 9 12 16 14 3
113 98 188 49 236 99 86 89 157 66 135 136 150 144 166 158 143 139 144 156 156 161 161 162 164 152 133 147 150 148 151 163 160 161 162 145 84 43 9 13 1 352 344 340 351 350 351 355 346
118 61 14 157 181 117 123 117 342 46 99 28 18 137 143 136 141 142 149 152 164 168 172 161 171 149 156 159 153 156 165 174 177 173 183 165 169 195 41 297 305 314 320 326 327 319 322 329 334
98 107 198 221 234 154 165 136 145 108 109 35 40 55 112 140 152 162 168 169 177 183 190 183 158 157 166 161 164 175 183 172 186 185 191 194 193 212 260 272 293 306 309 311 305 297 304 321 326
145 187 185 246 235 168 127 86 88 118 231 207 158 138 137 151 165 167 177 179 184 190 172 172 172 182 178 178 182 170 156 177 193 213 209 215 254 273 279 298 357 325 314 289 298 294 289 310 298
143 215 207 262 155 122 130 121 90 128 228 158 159 152 152 164 182 181 179 190 171 176 173 185 179 167 187 88 186 187 199 194 209 223 199 199 309 348 20 46 69 336 288 307 307 311 317 328 329
208 332 15 123 117 101 110 116 170 242 83 110 127 155 167 168 192 204 189 198 136 174 179 177 151 164 129 91 282 313 252 224 237 240 31 93 42 20 45 60 59 32 3 1 344 355 11 14 9
169 84 27 26 119 94 116 96 86 349 132 121 151 172 169 180 194 190 173 191 161 159 162 151 96 57 58 18 353 340 322 292 277 16 44 79 130 135 115 55 38 26 18 357 2 17 29 32 18
96 70 18 18 25 84 109 30 10 67 129 147 173 172 85 90 86 209 197 206 172 133 113 98 92 83 68 57 40 3 329 316 355 5 45 90 67 63 58 53 36 20 20 23 26 28 32 28 13
64 50 90 291 35 28 84 260 7 334 130 115 95 88 87 60 45 357 351 163 90 90 95 100 107 95 75 44 47 47 323 40 355 9 36 37 49 56 53 50 35 30 54 50 45 29 16 29 19
19 161 124 26 44 105 60 9 335 327 107 81 74 77 82 69 33 12 10 65 111 118 111 99 86 72 62 61 72 50 22 36 351 4 20 46 56 60 75 70 76 76 68 50 45 41 37 14 357
202 150 123 184 22 46 63 12 342 7 87 81 79 71 66 58 30 16 31 65 72 88 90 81 74 75 82 111 132 230 48 33 9 10 37 45 43 46 64 65 59 62 66 46 40 46 7 55 324
164 115 161 349 72 76 70 59 19 27 49 68 70 85 84 73 50 63 57 80 87 72 89 102 109 132 141 130 152 118 100 13 39 47 43 39 33 38 41 47 48 46 56 51 31 9 17 359 344
81 101 79 135 22 91 92 56 28 31 36 65 109 98 102 97 69 64 79 87 96 123 129 134 137 161 165 143 172 153 166 177 88 62 43 34 35 29 55 61 51 52 72 52 57 66 18 4 28
57 116 213 132 97 92 82 42 21 8 39 39 36 84 84 105 112 99 93 107 119 118 122 109 118 131 125 129 124 97 68 62 47 23 18 13 26 27 39 55 81 88 118 112 89 80 76 74 357
83 76 97 137 89 148 36 171 58 349 38 11 21 74 111 115 93 110 100 88 102 99 84 110 121 119 102 69 64 69 76 89 133 146 17 45 54 42 166 147 134 117 78 84 100 87 86 106 51
112 99 135 100 81 98 11 88 255 133 231 212 215 219 185 149 167 131 97 67 49 74 95 105 82 56 48 49 52 66 69 65 74 165 267 228 254 262 124 160 141 131 139 108 103 93 75 76 120
134 85 49 53 78 43 218 123 241 196 191 184 202 225 204 188 169 93 98 77 26 40 54 52 59 33 47 69 72 83 96 120 120 274 294 329 312 268 229 204 127 106 82 64 45 65 89 97 102
69 63 10 9 11 219 343 110 231 205 184 185 185 207 182 127 126 100 100 94 87 65 59 69 77 60 50 54 53 59 92 153 301 325 320 312 318 314 234 110 109 80 69 27 44 49 51 90 120
98 145 153 199 185 226 26 237 253 215 187 180 196 111 132 146 129 129 131 100 90 78 73 76 76 73 54 52 40 26 17 358 326 314 307 304 285 276 163 156 151 128 145 221 228 199 195 203 216
173 59 161 109 0 75 253 287 321 88 157 168 184 134 153 143 140 139 120 102 96 88 83 90 78 60 48 46 50 42 27 12 336 321 308 284 281 255 166 105 108 350 10 339 308 266 267 258 243
134 143 64 6 134 273 291 274 233 192 200 193 171 165 162 157 144 137 114 102 94 91 97 97 98 94 73 54 42 30 8 359 339 319 314 313 317 169 141 132 35 2 230 238 239 246 255 272 305
21 43 57 105 102 155 218 262 224 213 200 181 184 171 162 155 146 130 96 77 86 92 95 102 73 65 55 50 35 18 345 336 338 335 320 311 273 150 137 143 163 242 290 292 268 272 288 268 243
151 132 122 111 207 66 144 273 354 260 195 151 166 144 125 136 138 120 115 109 91 101 85 80 96 104 114 70 12 317 320 335 335 319 297 274 187 172 191 219 260 282 276 272 253 271 258 223 247